N23MZ -KBVU

Flight info

Callsign N23MZ
Flight time N/A
Altitude 10000
Route
Aircraft DA42/L-VGD/C

Departure

Time N/A
Airport -

Arrival

Time 2026-05-04 00:49
Airport Boulder City Municipal Airport (KBVU)
Time Latitude Longitude Altitude Speed Heading
2026-05-04 00:18 36.25540 -114.81138 9175 ft 148 kts 74°
2026-05-04 00:19 36.25994 -114.79992 8972 ft 147 kts 72°
2026-05-04 00:19 36.26433 -114.78860 8769 ft 145 kts 72°
2026-05-04 00:19 36.26665 -114.77740 8551 ft 123 kts 111°
2026-05-04 00:19 36.26205 -114.77076 8339 ft 96 kts 175°
2026-05-04 00:20 36.25577 -114.77161 8134 ft 89 kts 192°
2026-05-04 00:20 36.24960 -114.77275 7916 ft 90 kts 191°
2026-05-04 00:20 36.24328 -114.77403 7706 ft 93 kts 191°
2026-05-04 00:20 36.23704 -114.77539 7484 ft 92 kts 191°
2026-05-04 00:21 36.23077 -114.77674 7275 ft 92 kts 191°
2026-05-04 00:21 36.22445 -114.77808 7059 ft 90 kts 191°
2026-05-04 00:21 36.21855 -114.77945 6848 ft 84 kts 192°
2026-05-04 00:21 36.21299 -114.78074 6652 ft 79 kts 191°
2026-05-04 00:22 36.20813 -114.78179 6630 ft 63 kts 191°
2026-05-04 00:22 36.20421 -114.78274 6622 ft 53 kts 191°
2026-05-04 00:22 36.20037 -114.78248 6635 ft 70 kts 155°
2026-05-04 00:22 36.19678 -114.77764 6649 ft 78 kts 150°
2026-05-04 00:23 36.19284 -114.77277 6653 ft 81 kts 150°
2026-05-04 00:23 36.18906 -114.76779 6688 ft 73 kts 153°
2026-05-04 00:23 36.18599 -114.76340 6788 ft 63 kts 149°
2026-05-04 00:23 36.18295 -114.76035 6872 ft 51 kts 174°
2026-05-04 00:24 36.17939 -114.75874 6899 ft 60 kts 171°
2026-05-04 00:24 36.17528 -114.75683 6912 ft 66 kts 171°
2026-05-04 00:24 36.17091 -114.75476 6914 ft 71 kts 170°
2026-05-04 00:24 36.16593 -114.75274 6941 ft 79 kts 171°
2026-05-04 00:25 36.16044 -114.75071 6938 ft 84 kts 172°
2026-05-04 00:25 36.15494 -114.74854 6942 ft 82 kts 170°
2026-05-04 00:25 36.14959 -114.74646 6944 ft 81 kts 171°
2026-05-04 00:25 36.14419 -114.74435 6944 ft 80 kts 171°
2026-05-04 00:26 36.13901 -114.74205 6947 ft 79 kts 171°
2026-05-04 00:26 36.13388 -114.73970 6948 ft 78 kts 171°
2026-05-04 00:26 36.12870 -114.73747 6949 ft 82 kts 171°
2026-05-04 00:26 36.12313 -114.73530 6952 ft 85 kts 171°
2026-05-04 00:27 36.11743 -114.73314 6950 ft 85 kts 171°
2026-05-04 00:27 36.11186 -114.73088 6951 ft 85 kts 170°
2026-05-04 00:27 36.10613 -114.72878 6952 ft 87 kts 171°
2026-05-04 00:27 36.10040 -114.72644 6955 ft 87 kts 170°
2026-05-04 00:28 36.09457 -114.72422 6957 ft 88 kts 171°
2026-05-04 00:28 36.08870 -114.72194 6959 ft 88 kts 171°
2026-05-04 00:28 36.08299 -114.71956 6961 ft 86 kts 170°
2026-05-04 00:28 36.07726 -114.71741 6960 ft 86 kts 172°
2026-05-04 00:29 36.07152 -114.71519 6955 ft 86 kts 171°
2026-05-04 00:29 36.06592 -114.71286 6957 ft 85 kts 171°
2026-05-04 00:29 36.06035 -114.71049 6963 ft 86 kts 170°
2026-05-04 00:29 36.05460 -114.70822 6964 ft 87 kts 171°
2026-05-04 00:30 36.04869 -114.70603 6964 ft 90 kts 171°
2026-05-04 00:30 36.04263 -114.70364 6966 ft 92 kts 171°
2026-05-04 00:30 36.03860 -114.70203 6967 ft 92 kts 171°
2026-05-04 00:30 36.03072 -114.69891 6962 ft 89 kts 171°
2026-05-04 00:31 36.02490 -114.69667 6956 ft 86 kts 170°
2026-05-04 00:31 36.01922 -114.69465 6952 ft 84 kts 169°
2026-05-04 00:31 36.01384 -114.69264 6965 ft 81 kts 171°
2026-05-04 00:31 36.00824 -114.69081 6961 ft 83 kts 184°
2026-05-04 00:32 36.00464 -114.69230 6971 ft 82 kts 194°
2026-05-04 00:32 35.99890 -114.69162 6974 ft 86 kts 171°
2026-05-04 00:32 35.99309 -114.68982 6980 ft 87 kts 174°
2026-05-04 00:32 35.98714 -114.68809 6981 ft 88 kts 174°
2026-05-04 00:33 35.98114 -114.68638 6977 ft 88 kts 174°
2026-05-04 00:33 35.96929 -114.68302 6969 ft 87 kts 174°
2026-05-04 00:33 35.96336 -114.68139 6970 ft 87 kts 172°
2026-05-04 00:34 35.95738 -114.67972 6964 ft 88 kts 172°
2026-05-04 00:34 35.95154 -114.67806 6962 ft 85 kts 172°
2026-05-04 00:34 35.94577 -114.67646 6969 ft 85 kts 174°
2026-05-04 00:34 35.93989 -114.67491 6976 ft 87 kts 173°
2026-05-04 00:35 35.93390 -114.67326 6973 ft 91 kts 173°
2026-05-04 00:35 35.92739 -114.67146 6876 ft 100 kts 174°
2026-05-04 00:35 35.92045 -114.66952 6743 ft 104 kts 173°
2026-05-04 00:35 35.91378 -114.66761 6847 ft 93 kts 173°
2026-05-04 00:36 35.90741 -114.66583 6958 ft 98 kts 172°
2026-05-04 00:36 35.90048 -114.66391 6965 ft 103 kts 173°
2026-05-04 00:36 35.89356 -114.66201 6966 ft 104 kts 173°
2026-05-04 00:36 35.88655 -114.66005 6971 ft 103 kts 173°
2026-05-04 00:37 35.87948 -114.65809 6971 ft 103 kts 174°
2026-05-04 00:37 35.87252 -114.65615 6973 ft 102 kts 173°
2026-05-04 00:37 35.86556 -114.65423 6970 ft 103 kts 173°
2026-05-04 00:37 35.85866 -114.65230 6961 ft 102 kts 173°
2026-05-04 00:38 35.85190 -114.65051 6894 ft 94 kts 174°
2026-05-04 00:38 35.84580 -114.64829 6893 ft 91 kts 169°
2026-05-04 00:38 35.84013 -114.64555 6899 ft 85 kts 167°
2026-05-04 00:38 35.83458 -114.64248 6926 ft 90 kts 165°
2026-05-04 00:39 35.82890 -114.63878 6894 ft 94 kts 160°
2026-05-04 00:39 35.82323 -114.63438 6866 ft 100 kts 156°
2026-05-04 00:39 35.81756 -114.62920 6764 ft 103 kts 152°
2026-05-04 00:39 35.81209 -114.62332 6650 ft 105 kts 150°
2026-05-04 00:40 35.80693 -114.61679 6480 ft 107 kts 147°
2026-05-04 00:40 35.80220 -114.60968 6296 ft 114 kts 130°
2026-05-04 00:40 35.80287 -114.59899 6107 ft 145 kts 71°
2026-05-04 00:40 35.81144 -114.59150 5904 ft 160 kts 12°
2026-05-04 00:41 35.82170 -114.59403 5695 ft 145 kts 315°
2026-05-04 00:41 35.82820 -114.60260 5421 ft 130 kts 286°
2026-05-04 00:41 35.83217 -114.61157 5423 ft 116 kts 285°
2026-05-04 00:41 35.83638 -114.62079 5404 ft 129 kts 287°
2026-05-04 00:42 35.84110 -114.63040 5408 ft 133 kts 287°
2026-05-04 00:42 35.84601 -114.64015 5408 ft 136 kts 290°
2026-05-04 00:42 35.85102 -114.65005 5410 ft 136 kts 290°
2026-05-04 00:42 35.85578 -114.65951 5335 ft 123 kts 282°
2026-05-04 00:43 35.85981 -114.66821 5127 ft 123 kts 296°
2026-05-04 00:43 35.86496 -114.67663 4752 ft 128 kts 301°
2026-05-04 00:43 35.87067 -114.68514 4786 ft 132 kts 294°
2026-05-04 00:43 35.87601 -114.69422 4898 ft 130 kts 291°
2026-05-04 00:44 35.88092 -114.70386 4873 ft 136 kts 287°
2026-05-04 00:44 35.88545 -114.71448 4795 ft 141 kts 282°
2026-05-04 00:44 35.89055 -114.72515 4774 ft 146 kts 294°
2026-05-04 00:44 35.89592 -114.73585 4615 ft 150 kts 291°
2026-05-04 00:45 35.90236 -114.74622 4454 ft 153 kts 297°
2026-05-04 00:45 35.90851 -114.75644 4325 ft 146 kts 297°
2026-05-04 00:45 35.91436 -114.76629 4122 ft 142 kts 294°
2026-05-04 00:45 35.91992 -114.77602 3916 ft 135 kts 292°
2026-05-04 00:46 35.92469 -114.78569 3791 ft 130 kts 289°
2026-05-04 00:46 35.92933 -114.79516 3677 ft 129 kts 289°
2026-05-04 00:46 35.93335 -114.80486 3558 ft 125 kts 281°
2026-05-04 00:46 35.93670 -114.81464 3440 ft 123 kts 281°
2026-05-04 00:47 35.93986 -114.82430 3362 ft 120 kts 282°
2026-05-04 00:47 35.94492 -114.83273 3311 ft 124 kts 306°
2026-05-04 00:47 35.95180 -114.83914 3321 ft 121 kts 322°
2026-05-04 00:47 35.95908 -114.84341 3344 ft 112 kts 331°
2026-05-04 00:48 35.96643 -114.84694 3271 ft 115 kts 323°
2026-05-04 00:48 35.97175 -114.85268 3211 ft 86 kts 261°
2026-05-04 00:48 35.97078 -114.85872 3071 ft 71 kts 225°
2026-05-04 00:48 35.96778 -114.86420 2848 ft 77 kts 208°
2026-05-04 00:49 35.96267 -114.86579 2577 ft 79 kts 172°
2026-05-04 00:49 35.95746 -114.86457 2304 ft 79 kts 166°
2026-05-04 00:49 35.95253 -114.86307 2144 ft 66 kts 167°
2026-05-04 00:49 35.94867 -114.86178 2142 ft 49 kts 166°
2026-05-04 00:50 35.94596 -114.86096 2144 ft 32 kts 166°
2026-05-04 00:50 35.94414 -114.86039 2144 ft 15 kts 165°
2026-05-04 00:50 35.94378 -114.85995 2144 ft 9 kts 51°
2026-05-04 00:50 35.94467 -114.85972 2143 ft 18 kts 345°
2026-05-04 00:51 35.94546 -114.85997 2142 ft 0 kts 348°
2026-05-04 00:51 35.94548 -114.85998 2142 ft 2 kts 347°
2026-05-04 00:51 35.94601 -114.86015 2143 ft 14 kts 344°
2026-05-04 00:51 35.94726 -114.86055 2136 ft 22 kts 348°
2026-05-04 00:52 35.94832 -114.86082 2138 ft 10 kts 23°
2026-05-04 00:52 35.94856 -114.86027 2137 ft 8 kts 356°
2026-05-04 00:52 35.94892 -114.86005 2137 ft 0 kts 37°